FLOCK 3R-14 (43749 NORAD) Tracking and Keplerian Element Data

This shows tracking and keplerian element data for the satellite.

Feedback or suggestion? Click here.




ElementValue
Catalog43749
NameFLOCK 3R-14
Epoch Orbit458
Epoch Day363.19072082
Epoch Year2018
RAAN68.2516
Inclination97.481
Eccentricity0.0021297
Argument of Perigee220.6835
Mean Anonmoly224.3454
Mean Motion15.27029004
Decay Rate2.021E-05
L11 43749U 18096AG 18363.19072082 .00002021 00000-0 78632-4 0 9996
L22 43749 97.4810 68.2516 0021297 220.6835 224.3454 15.27029004 4584

Live tracking and technical data element details for FLOCK 3R-14 (NORAD 43749). FLOCK 3R-14 can be tracked NOW for your location showing map with azimuth and elevation plus other details from your city location.

Track the satellite on the map from your city or location and see movement details for azimuth, elevation, latitude, longitude, range, height, and movement on the map or in text.







IsCatalogInMostPopularTable: catalog: 43749, numindb: 120
Update: records affected: 1



GetName: 43749 FLOCK 3R-14

Hit Count: updated at: Tue, 16 Jul 2019 20:53:06 GMT